Regional Weather Roundup
Issued by NWS Tiyan, Guam

Home | Current Version | Previous Version | Text Only | Print | Product List | Glossary On
Versions: 1 2 3 4 5 6 7 8 9 10 11 12 13 14 15 16 17 18 19 20 21 22 23 24 25 26 27
000
ASGM40 PGUM 270012
RWRGUM
WEATHER ROUNDUP FOR THE MARIANAS
NATIONAL WEATHER SERVICE TIYAN GU
1000 AM CHST MON MAR 27 2017

GUZ001>004-270100-
MARIANA ISLANDS-

CITY           SKY/WX    TMP DP  RH WIND       PRES   REMARKS
GUAM AIRPORT   MOSUNNY   86  75  70 NE14      30.01F HX  95
ANDERSEN AFB   PTSUNNY   84  75  74 NE15      30.03F HX  92
ROTA AIRPORT   MOSUNNY   82  75  78 NE12      30.03S
TINIAN AP      MOSUNNY   82  73  74 NE15      30.01S
SAIPAN AP      MOSUNNY   84  73  70 E16       30.01F HX  91

$$





USA.gov is the U.S. government's official web portal to all federal, state and local government web resources and services.